When you browse on this site, cookies collect data to enhance your experience and personalize the content and advertising you see.
Visit our Privacy Policy to learn more. By continuing to use the site, you agree to this use of cookies and data.
  • în România
  • Lista ţărilor
  • Pe 7 zile
  • Temperatura apei
  • Hartă satelitară
  • Meteo pe hartă
  • Widget-uri
  • user-avatar
    Intrare

    Meteo pe oră la Knighton

    Astăzi, 20 Ianuarie, Duminică

    Timp Temperatura Precipitaţii Vânt Presiune Umiditate
    00:00 +2°C° 0 mm 0 m/s 728 mmHg 98%
    01:00 +2°C° 0 mm 0 m/s 728 mmHg 98%
    02:00 +2°C° 0 mm 0 m/s 729 mmHg 98%
    03:00 +2°C° 0 mm 0 m/s 729 mmHg 98%
    04:00 +2°C° 0 mm 0 m/s 729 mmHg 97%
    05:00 +2°C° 0 mm 0 m/s 730 mmHg 97%
    06:00 +2°C° 0 mm 0 m/s 730 mmHg 97%
    07:00 +2°C° 0 mm 0 m/s 731 mmHg 96%
    08:00 +2°C° 0 mm 0 m/s 731 mmHg 95%
    09:00 +2°C° 0 mm 0 m/s 732 mmHg 95%
    10:00 +3°C° 0 mm 0 m/s 732 mmHg 93%
    11:00 +5°C° 0 mm 1 m/s 733 mmHg 91%
    12:00 +5°C° 0 mm 1 m/s 734 mmHg 89%
    13:00 +4°C° 0 mm 2 m/s 734 mmHg 88%
    14:00 +5°C° 0 mm 2 m/s 734 mmHg 87%
    15:00 +4°C° 0 mm 3 m/s 734 mmHg 86%
    16:00 +4°C° 0 mm 2 m/s 735 mmHg 87%
    17:00 +3°C° 0 mm 2 m/s 735 mmHg 89%
    18:00 +4°C° 0 mm 1 m/s 736 mmHg 90%
    19:00 +3°C° 0 mm 1 m/s 736 mmHg 91%
    20:00 +3°C° 0 mm 1 m/s 737 mmHg 92%
    21:00 +3°C° 0 mm 1 m/s 737 mmHg 92%
    22:00 +3°C° 0.1 mm 1 m/s 737 mmHg 93%
    23:00 +4°C° 0.1 mm 1 m/s 738 mmHg 94%

    Mâine, 21 Ianuarie, Luni

    Timp Temperatura Precipitaţii Vânt Presiune Umiditate
    00:00 +3°C° 0.1 mm 2 m/s 738 mmHg 95%
    01:00 +4°C° 0 mm 1 m/s 738 mmHg 95%
    02:00 +3°C° 0 mm 1 m/s 738 mmHg 96%
    03:00 +3°C° 0 mm 1 m/s 738 mmHg 97%
    04:00 +3°C° 0 mm 1 m/s 738 mmHg 97%
    05:00 +3°C° 0 mm 1 m/s 738 mmHg 96%
    06:00 +2°C° 0 mm 0 m/s 737 mmHg 96%
    07:00 +2°C° 0 mm 0 m/s 737 mmHg 95%
    08:00 +3°C° 0 mm 1 m/s 737 mmHg 94%
    09:00 +3°C° 0 mm 1 m/s 737 mmHg 94%
    10:00 +3°C° 0 mm 2 m/s 736 mmHg 91%
    11:00 +2°C° 0 mm 3 m/s 736 mmHg 88%
    12:00 +3°C° 0 mm 4 m/s 735 mmHg 86%
    13:00 +3°C° 0 mm 4 m/s 734 mmHg 84%
    14:00 +3°C° 0 mm 4 m/s 733 mmHg 83%
    15:00 +3°C° 0 mm 4 m/s 732 mmHg 81%
    16:00 +2°C° 0 mm 5 m/s 731 mmHg 83%
    17:00 +1°C° 0 mm 5 m/s 730 mmHg 85%
    18:00 +1°C° 0 mm 5 m/s 729 mmHg 88%
    19:00 +1°C° 0.2 mm 6 m/s 728 mmHg 87%
    20:00 +2°C° 0.2 mm 7 m/s 726 mmHg 87%
    21:00 +1°C° 0.2 mm 8 m/s 725 mmHg 87%
    22:00 0°C° 1 mm 7 m/s 724 mmHg 85%
    23:00 -1°C° 1 mm 6 m/s 724 mmHg 82%

    Poimâine, 22 Ianuarie, Marţi

    Timp Temperatura Precipitaţii Vânt Presiune Umiditate
    00:00 -1°C° 1 mm 4 m/s 723 mmHg 79%
    01:00 -2°C° 0 mm 4 m/s 723 mmHg 81%
    02:00 -2°C° 0 mm 4 m/s 722 mmHg 83%
    03:00 -3°C° 0 mm 4 m/s 722 mmHg 85%
    04:00 -3°C° 0 mm 4 m/s 721 mmHg 85%
    05:00 -3°C° 0 mm 4 m/s 721 mmHg 86%
    06:00 -3°C° 0 mm 4 m/s 720 mmHg 86%
    07:00 -3°C° 0 mm 4 m/s 720 mmHg 85%
    08:00 -3°C° 0 mm 4 m/s 720 mmHg 83%
    09:00 -3°C° 0 mm 4 m/s 721 mmHg 82%
    10:00 -2°C° 0 mm 5 m/s 721 mmHg 77%
    11:00 -2°C° 0 mm 6 m/s 721 mmHg 72%
    12:00 -1°C° 0 mm 7 m/s 721 mmHg 68%
    13:00 -1°C° 0.1 mm 7 m/s 721 mmHg 68%
    14:00 -2°C° 0.1 mm 7 m/s 721 mmHg 68%
    15:00 -2°C° 0.1 mm 7 m/s 721 mmHg 68%
    16:00 -3°C° 0 mm 6 m/s 722 mmHg 72%
    17:00 -4°C° 0 mm 5 m/s 722 mmHg 76%
    18:00 -4°C° 0 mm 4 m/s 722 mmHg 80%
    19:00 -4°C° 0 mm 4 m/s 722 mmHg 81%
    20:00 -4°C° 0 mm 3 m/s 723 mmHg 81%
    21:00 -4°C° 0 mm 3 m/s 723 mmHg 82%
    22:00 -4°C° 0 mm 3 m/s 723 mmHg 82%
    23:00 -4°C° 0 mm 3 m/s 723 mmHg 82%

    23 Ianuarie, Miercuri

    Timp Temperatura Precipitaţii Vânt Presiune Umiditate
    00:00 -4°C° 0 mm 3 m/s 724 mmHg 82%
    01:00 -4°C° 0 mm 3 m/s 724 mmHg 82%
    02:00 -4°C° 0 mm 3 m/s 724 mmHg 83%
    03:00 -4°C° 0 mm 4 m/s 724 mmHg 83%
    04:00 -4°C° 0 mm 3 m/s 724 mmHg 85%
    05:00 -4°C° 0 mm 3 m/s 724 mmHg 86%
    06:00 -4°C° 0 mm 3 m/s 724 mmHg 87%
    07:00 -4°C° 0 mm 3 m/s 725 mmHg 87%
    08:00 -4°C° 0 mm 3 m/s 725 mmHg 86%
    09:00 -2°C° 0 mm 2 m/s 726 mmHg 85%
    10:00 -1°C° 0 mm 3 m/s 726 mmHg 79%
    11:00 +1°C° 0 mm 3 m/s 726 mmHg 74%
    12:00 +2°C° 0 mm 3 m/s 727 mmHg 68%
    13:00 +2°C° 0 mm 3 m/s 727 mmHg 70%
    14:00 +2°C° 0 mm 3 m/s 727 mmHg 72%
    15:00 +2°C° 0 mm 3 m/s 727 mmHg 73%
    16:00 +2°C° 0 mm 2 m/s 727 mmHg 79%
    17:00 -1°C° 0 mm 2 m/s 728 mmHg 84%
    18:00 -2°C° 0 mm 2 m/s 728 mmHg 90%
    19:00 -2°C° 0 mm 2 m/s 728 mmHg 89%
    20:00 -1°C° 0 mm 2 m/s 728 mmHg 87%
    21:00 -1°C° 0 mm 2 m/s 729 mmHg 86%
    22:00 -1°C° 0 mm 2 m/s 729 mmHg 88%
    23:00 -1°C° 0 mm 2 m/s 729 mmHg 90%

    24 Ianuarie, Joi

    Timp Temperatura Precipitaţii Vânt Presiune Umiditate
    00:00 -1°C° 0 mm 2 m/s 729 mmHg 92%
    01:00 -1°C° 0 mm 2 m/s 729 mmHg 93%
    02:00 -1°C° 0 mm 2 m/s 728 mmHg 93%
    03:00 +1°C° 0 mm 2 m/s 728 mmHg 94%
    04:00 +1°C° 0.2 mm 2 m/s 728 mmHg 94%
    05:00 +2°C° 0.2 mm 1 m/s 728 mmHg 95%
    06:00 +2°C° 0.2 mm 1 m/s 728 mmHg 95%
    07:00 +3°C° 0.6 mm 1 m/s 728 mmHg 96%
    08:00 +3°C° 0.6 mm 1 m/s 728 mmHg 96%
    09:00 +3°C° 0.6 mm 1 m/s 728 mmHg 96%
    10:00 +4°C° 0.2 mm 1 m/s 728 mmHg 94%
    11:00 +5°C° 0.2 mm 1 m/s 728 mmHg 93%
    12:00 +5°C° 0.2 mm 1 m/s 729 mmHg 91%
    13:00 +5°C° 0.1 mm 1 m/s 729 mmHg 92%
    14:00 +5°C° 0.1 mm 0 m/s 729 mmHg 93%
    15:00 +5°C° 0.1 mm 0 m/s 729 mmHg 94%
    16:00 +4°C° 0.1 mm 0 m/s 729 mmHg 95%
    17:00 +3°C° 0.1 mm 0 m/s 730 mmHg 96%
    18:00 +2°C° 0.1 mm 0 m/s 730 mmHg 97%
    19:00 +2°C° 0 mm 0 m/s 731 mmHg 97%
    20:00 +2°C° 0 mm 0 m/s 731 mmHg 97%
    21:00 +2°C° 0 mm 0 m/s 732 mmHg 96%
    22:00 +3°C° 0.1 mm 1 m/s 732 mmHg 96%
    23:00 +3°C° 0.1 mm 1 m/s 732 mmHg 96%

    25 Ianuarie, Vineri

    Timp Temperatura Precipitaţii Vânt Presiune Umiditate
    00:00 +3°C° 0.1 mm 1 m/s 733 mmHg 96%
    01:00 +4°C° 0 mm 1 m/s 733 mmHg 96%
    02:00 +4°C° 0 mm 1 m/s 733 mmHg 96%
    03:00 +4°C° 0 mm 1 m/s 733 mmHg 97%
    04:00 +4°C° 0 mm 1 m/s 733 mmHg 97%
    05:00 +4°C° 0 mm 1 m/s 734 mmHg 97%
    06:00 +5°C° 0 mm 1 m/s 734 mmHg 97%
    07:00 +4°C° 0 mm 2 m/s 734 mmHg 97%
    08:00 +5°C° 0 mm 2 m/s 734 mmHg 97%
    09:00 +5°C° 0 mm 2 m/s 735 mmHg 97%
    10:00 +6°C° 0 mm 2 m/s 735 mmHg 95%
    11:00 +7°C° 0 mm 3 m/s 735 mmHg 93%
    12:00 +8°C° 0 mm 3 m/s 735 mmHg 91%
    13:00 +8°C° 0 mm 3 m/s 735 mmHg 90%
    14:00 +6°C° 0 mm 4 m/s 735 mmHg 89%
    15:00 +6°C° 0 mm 4 m/s 735 mmHg 89%
    16:00 +5°C° 0 mm 4 m/s 735 mmHg 90%
    17:00 +3°C° 0 mm 3 m/s 735 mmHg 92%
    18:00 +2°C° 0 mm 3 m/s 735 mmHg 93%
    19:00 +3°C° 0 mm 4 m/s 735 mmHg 93%
    20:00 +3°C° 0 mm 4 m/s 735 mmHg 92%
    21:00 +2°C° 0 mm 5 m/s 734 mmHg 91%
    22:00 +2°C° 0 mm 5 m/s 734 mmHg 92%
    23:00 +3°C° 0 mm 5 m/s 734 mmHg 93%
    Arată mai mult